Time,TemperatureF,DewpointF,PressureIn,WindDirection,WindDirectionDegrees,WindSpeedMPH,WindSpeedGustMPH,Humidity,HourlyPrecipIn,Conditions,Clouds,dailyrainin,SolarRadiationWatts/m^2,SoftwareType,DateUTC
2013-10-13 00:01:00,60.0,38.0,-100.00,West,266,6.0,17.0,44,0.00,,,0.02,30.000000,,2013-10-13 00:01:00,
2013-10-13 00:12:00,57.0,39.0,-100.00,WSW,249,2.0,14.0,51,0.00,,,0.02,1.000000,,2013-10-13 00:12:00,
2013-10-13 00:42:00,57.0,39.0,-100.00,WSW,249,2.0,14.0,51,0.00,,,0.02,1.000000,,2013-10-13 00:42:00,
2013-10-13 00:52:00,57.0,39.0,-100.00,WSW,249,2.0,14.0,51,0.00,,,0.02,1.000000,,2013-10-13 00:52:00,
2013-10-13 01:01:00,57.0,39.0,-100.00,WSW,249,2.0,14.0,51,0.00,,,0.02,1.000000,,2013-10-13 01:01:00,
2013-10-13 01:12:00,52.0,41.0,-100.00,SSW,194,0.0,4.0,65,0.00,,,0.02,0.000000,,2013-10-13 01:12:00,
2013-10-13 01:42:00,52.0,41.0,-100.00,SSW,194,0.0,4.0,65,0.00,,,0.02,0.000000,,2013-10-13 01:42:00,
2013-10-13 01:52:00,52.0,41.0,-100.00,SSW,194,0.0,4.0,65,0.00,,,0.02,0.000000,,2013-10-13 01:52:00,
2013-10-13 02:02:00,52.0,41.0,-100.00,SSW,194,0.0,4.0,65,0.00,,,0.02,0.000000,,2013-10-13 02:02:00,
2013-10-13 02:12:00,53.0,39.0,-100.00,West,262,2.0,8.0,58,0.00,,,0.02,0.000000,,2013-10-13 02:12:00,
2013-10-13 02:43:00,53.0,39.0,-100.00,West,262,2.0,8.0,58,0.00,,,0.02,0.000000,,2013-10-13 02:43:00,
2013-10-13 02:52:00,53.0,39.0,-100.00,West,262,2.0,8.0,58,0.00,,,0.02,0.000000,,2013-10-13 02:52:00,
2013-10-13 03:02:00,53.0,39.0,-100.00,West,262,2.0,8.0,58,0.00,,,0.02,0.000000,,2013-10-13 03:02:00,
2013-10-13 03:12:00,47.0,39.0,-100.00,SSW,193,0.0,5.0,75,0.00,,,0.02,0.000000,,2013-10-13 03:12:00,
2013-10-13 03:45:00,47.0,39.0,-100.00,SSW,193,0.0,5.0,75,0.00,,,0.02,0.000000,,2013-10-13 03:45:00,
2013-10-13 03:54:00,47.0,39.0,-100.00,SSW,193,0.0,5.0,75,0.00,,,0.02,0.000000,,2013-10-13 03:54:00,
2013-10-13 04:02:00,-999.0,-99.9,-100.00,SSW,193,0.0,5.0,-999,-99.99,,,-99.99,0.000000,,2013-10-13 04:02:00,
2013-10-13 04:12:00,44.0,39.0,-100.00,WSW,243,0.0,3.0,83,0.00,,,0.02,0.000000,,2013-10-13 04:12:00,
2013-10-13 04:43:00,44.0,39.0,-100.00,WSW,243,0.0,3.0,83,0.00,,,0.02,0.000000,,2013-10-13 04:43:00,
2013-10-13 04:54:00,44.0,39.0,-100.00,WSW,243,0.0,3.0,83,0.00,,,0.02,0.000000,,2013-10-13 04:54:00,
2013-10-13 05:03:00,44.0,39.0,-100.00,WSW,243,0.0,3.0,83,0.00,,,0.02,0.000000,,2013-10-13 05:03:00,
2013-10-13 05:12:00,43.0,38.0,-100.00,South,190,2.0,4.0,82,0.00,,,0.02,0.000000,,2013-10-13 05:12:00,
2013-10-13 05:43:00,43.0,38.0,-100.00,South,190,2.0,4.0,82,0.00,,,0.02,0.000000,,2013-10-13 05:43:00,
2013-10-13 05:52:00,43.0,38.0,-100.00,South,190,2.0,4.0,82,0.00,,,0.02,0.000000,,2013-10-13 05:52:00,
2013-10-13 06:02:00,43.0,38.0,-100.00,South,190,2.0,4.0,82,0.00,,,0.02,0.000000,,2013-10-13 06:02:00,
2013-10-13 06:42:00,43.0,37.0,-100.00,SW,234,0.0,3.0,80,0.00,,,0.02,0.000000,,2013-10-13 06:42:00,
2013-10-13 06:52:00,43.0,37.0,-100.00,SW,234,0.0,3.0,80,0.00,,,0.02,0.000000,,2013-10-13 06:52:00,
2013-10-13 07:02:00,43.0,37.0,-100.00,SW,234,0.0,3.0,80,0.00,,,0.02,0.000000,,2013-10-13 07:02:00,
2013-10-13 07:11:00,43.0,37.0,-100.00,SW,234,0.0,3.0,80,0.00,,,0.02,0.000000,,2013-10-13 07:11:00,
2013-10-13 07:12:00,42.0,36.0,-100.00,NW,319,0.0,4.0,80,0.00,,,0.02,0.000000,,2013-10-13 07:12:00,
2013-10-13 07:42:00,42.0,36.0,-100.00,NW,319,0.0,4.0,80,0.00,,,0.02,0.000000,,2013-10-13 07:42:00,
2013-10-13 07:52:00,42.0,36.0,-100.00,NW,319,0.0,4.0,80,0.00,,,0.02,0.000000,,2013-10-13 07:52:00,
2013-10-13 08:02:00,42.0,36.0,-100.00,NW,319,0.0,4.0,80,0.00,,,0.02,0.000000,,2013-10-13 08:02:00,
2013-10-13 08:42:00,40.0,37.0,-100.00,WNW,294,0.0,4.0,88,0.00,,,0.02,0.000000,,2013-10-13 08:42:00,
2013-10-13 08:52:00,40.0,37.0,-100.00,WNW,294,0.0,4.0,88,0.00,,,0.02,0.000000,,2013-10-13 08:52:00,
2013-10-13 09:02:00,40.0,37.0,-100.00,WNW,294,0.0,4.0,88,0.00,,,0.02,0.000000,,2013-10-13 09:02:00,
2013-10-13 09:11:00,40.0,37.0,-100.00,WNW,294,0.0,4.0,88,0.00,,,0.02,0.000000,,2013-10-13 09:11:00,
2013-10-13 09:12:00,38.0,35.0,-100.00,SSE,149,0.0,5.0,90,0.00,,,0.02,0.000000,,2013-10-13 09:12:00,
2013-10-13 09:43:00,38.0,35.0,-100.00,SSE,149,0.0,5.0,90,0.00,,,0.02,0.000000,,2013-10-13 09:43:00,
2013-10-13 09:53:00,38.0,35.0,-100.00,SSE,149,0.0,5.0,90,0.00,,,0.02,0.000000,,2013-10-13 09:53:00,
2013-10-13 10:03:00,38.0,35.0,-100.00,SSE,149,0.0,5.0,90,0.00,,,0.02,0.000000,,2013-10-13 10:03:00,
2013-10-13 10:12:00,38.0,36.0,-100.00,WNW,293,0.0,4.0,93,0.00,,,0.02,0.000000,,2013-10-13 10:12:00,
2013-10-13 10:43:00,38.0,36.0,-100.00,WNW,293,0.0,4.0,93,0.00,,,0.02,0.000000,,2013-10-13 10:43:00,
2013-10-13 10:53:00,38.0,36.0,-100.00,WNW,293,0.0,4.0,93,0.00,,,0.02,0.000000,,2013-10-13 10:53:00,
2013-10-13 11:03:00,38.0,36.0,-100.00,WNW,293,0.0,4.0,93,0.00,,,0.02,0.000000,,2013-10-13 11:03:00,
2013-10-13 11:12:00,36.0,34.0,-100.00,SE,134,1.0,3.0,92,0.00,,,0.02,0.000000,,2013-10-13 11:12:00,
2013-10-13 11:42:00,36.0,34.0,-100.00,SE,134,1.0,3.0,92,0.00,,,0.02,0.000000,,2013-10-13 11:42:00,
2013-10-13 11:52:00,36.0,34.0,-100.00,SE,134,1.0,3.0,92,0.00,,,0.02,0.000000,,2013-10-13 11:52:00,
2013-10-13 12:01:00,36.0,34.0,-100.00,SE,134,1.0,3.0,92,0.00,,,0.02,0.000000,,2013-10-13 12:01:00,
2013-10-13 12:12:00,35.0,33.0,-100.00,South,176,0.0,1.0,93,0.00,,,0.02,1.000000,,2013-10-13 12:12:00,
2013-10-13 12:42:00,35.0,33.0,-100.00,South,176,0.0,1.0,93,0.00,,,0.02,1.000000,,2013-10-13 12:42:00,
2013-10-13 12:52:00,35.0,33.0,-100.00,South,176,0.0,1.0,93,0.00,,,0.02,1.000000,,2013-10-13 12:52:00,
2013-10-13 13:02:00,35.0,33.0,-100.00,South,176,0.0,1.0,93,0.00,,,0.02,1.000000,,2013-10-13 13:02:00,
2013-10-13 13:42:00,39.0,37.0,-100.00,SE,134,0.0,1.0,93,0.00,,,0.02,52.000000,,2013-10-13 13:42:00,
2013-10-13 13:52:00,39.0,37.0,-100.00,SE,134,0.0,1.0,93,0.00,,,0.02,52.000000,,2013-10-13 13:52:00,
2013-10-13 14:02:00,39.0,37.0,-100.00,SE,134,0.0,1.0,93,0.00,,,0.02,52.000000,,2013-10-13 14:02:00,
2013-10-13 14:11:00,39.0,37.0,-100.00,SE,134,0.0,1.0,93,0.00,,,0.02,52.000000,,2013-10-13 14:11:00,
2013-10-13 14:12:00,49.0,41.0,-100.00,WNW,294,5.0,9.0,75,0.00,,,0.02,244.000000,,2013-10-13 14:12:00,
2013-10-13 14:42:00,49.0,41.0,-100.00,WNW,294,5.0,9.0,75,0.00,,,0.02,244.000000,,2013-10-13 14:42:00,
2013-10-13 14:52:00,49.0,41.0,-100.00,WNW,294,5.0,9.0,75,0.00,,,0.02,244.000000,,2013-10-13 14:52:00,
2013-10-13 15:01:00,49.0,41.0,-100.00,WNW,294,5.0,9.0,75,0.00,,,0.02,244.000000,,2013-10-13 15:01:00,
2013-10-13 15:12:00,53.0,40.0,-100.00,NW,316,7.0,14.0,61,0.00,,,0.02,393.000000,,2013-10-13 15:12:00,
2013-10-13 15:43:00,53.0,40.0,-100.00,NW,316,7.0,14.0,61,0.00,,,0.02,393.000000,,2013-10-13 15:43:00,
2013-10-13 15:54:00,53.0,40.0,-100.00,NW,316,7.0,14.0,61,0.00,,,0.02,393.000000,,2013-10-13 15:54:00,
2013-10-13 16:03:00,53.0,40.0,-100.00,NW,316,7.0,14.0,61,0.00,,,0.02,393.000000,,2013-10-13 16:03:00,
2013-10-13 16:12:00,54.0,36.0,-100.00,NW,314,9.0,18.0,50,0.00,,,0.00,545.000000,,2013-10-13 16:12:00,
2013-10-13 16:43:00,54.0,36.0,-100.00,NW,314,9.0,18.0,50,0.00,,,0.00,545.000000,,2013-10-13 16:43:00,
2013-10-13 16:54:00,54.0,36.0,-100.00,NW,314,9.0,18.0,50,0.00,,,0.00,545.000000,,2013-10-13 16:54:00,
2013-10-13 17:03:00,54.0,36.0,-100.00,NW,314,9.0,18.0,50,0.00,,,0.00,545.000000,,2013-10-13 17:03:00,
2013-10-13 17:12:00,56.0,36.0,-100.00,NNW,328,9.0,16.0,47,0.00,,,0.00,629.000000,,2013-10-13 17:12:00,
2013-10-13 17:43:00,56.0,36.0,-100.00,NNW,328,9.0,16.0,47,0.00,,,0.00,629.000000,,2013-10-13 17:43:00,
2013-10-13 17:52:00,56.0,36.0,-100.00,NNW,328,9.0,16.0,47,0.00,,,0.00,629.000000,,2013-10-13 17:52:00,
2013-10-13 18:02:00,56.0,36.0,-100.00,NNW,328,9.0,16.0,47,0.00,,,0.00,629.000000,,2013-10-13 18:02:00,
2013-10-13 18:42:00,58.0,36.0,-100.00,NW,313,8.0,19.0,43,0.00,,,0.00,661.000000,,2013-10-13 18:42:00,
2013-10-13 18:52:00,58.0,36.0,-100.00,NW,313,8.0,19.0,43,0.00,,,0.00,661.000000,,2013-10-13 18:52:00,
2013-10-13 19:02:00,58.0,36.0,-100.00,NW,313,8.0,19.0,43,0.00,,,0.00,661.000000,,2013-10-13 19:02:00,
2013-10-13 19:11:00,58.0,36.0,-100.00,NW,313,8.0,19.0,43,0.00,,,0.00,661.000000,,2013-10-13 19:11:00,
2013-10-13 19:12:00,58.0,34.0,-100.00,NW,321,10.0,17.0,40,0.00,,,0.00,633.000000,,2013-10-13 19:12:00,
2013-10-13 19:42:00,58.0,34.0,-100.00,NW,321,10.0,17.0,40,0.00,,,0.00,633.000000,,2013-10-13 19:42:00,
2013-10-13 19:53:00,58.0,34.0,-100.00,NW,321,10.0,17.0,40,0.00,,,0.00,633.000000,,2013-10-13 19:53:00,
2013-10-13 20:02:00,58.0,34.0,-100.00,NW,321,10.0,17.0,40,0.00,,,0.00,633.000000,,2013-10-13 20:02:00,
2013-10-13 20:43:00,59.0,34.0,-100.00,NW,305,8.0,15.0,39,0.00,,,0.00,552.000000,,2013-10-13 20:43:00,
2013-10-13 20:52:00,59.0,34.0,-100.00,NW,305,8.0,15.0,39,0.00,,,0.00,552.000000,,2013-10-13 20:52:00,
2013-10-13 21:02:00,59.0,34.0,-100.00,NW,305,8.0,15.0,39,0.00,,,0.00,552.000000,,2013-10-13 21:02:00,
2013-10-13 21:11:00,59.0,34.0,-100.00,NW,305,8.0,15.0,39,0.00,,,0.00,552.000000,,2013-10-13 21:11:00,
2013-10-13 21:12:00,59.0,33.0,-100.00,NNW,334,7.0,13.0,37,0.00,,,0.00,422.000000,,2013-10-13 21:12:00,
2013-10-13 21:44:00,59.0,33.0,-100.00,NNW,334,7.0,13.0,37,0.00,,,0.00,422.000000,,2013-10-13 21:44:00,
2013-10-13 21:55:00,59.0,33.0,-100.00,NNW,334,7.0,13.0,37,0.00,,,0.00,422.000000,,2013-10-13 21:55:00,
2013-10-13 22:03:00,59.0,33.0,-100.00,NNW,334,7.0,13.0,37,0.00,,,0.00,422.000000,,2013-10-13 22:03:00,
2013-10-13 22:12:00,58.0,33.0,-100.00,NW,319,5.0,11.0,38,0.00,,,0.00,253.000000,,2013-10-13 22:12:00,
2013-10-13 22:43:00,58.0,33.0,-100.00,NW,319,5.0,11.0,38,0.00,,,0.00,253.000000,,2013-10-13 22:43:00,
2013-10-13 22:53:00,58.0,33.0,-100.00,NW,319,5.0,11.0,38,0.00,,,0.00,253.000000,,2013-10-13 22:53:00,
2013-10-13 23:03:00,58.0,33.0,-100.00,NW,319,5.0,11.0,38,0.00,,,0.00,253.000000,,2013-10-13 23:03:00,
2013-10-13 23:12:00,54.0,35.0,-100.00,NNW,338,1.0,8.0,48,0.00,,,-99.99,29.000000,,2013-10-13 23:12:00,
2013-10-13 23:42:00,54.0,35.0,-100.00,NNW,338,1.0,8.0,48,0.00,,,-99.99,29.000000,,2013-10-13 23:42:00,
2013-10-13 23:52:00,54.0,35.0,-100.00,NNW,338,1.0,8.0,48,0.00,,,-99.99,29.000000,,2013-10-13 23:52:00,